Flag for Greece Weather past 2 weeks in Athens, Greece

Now
77 °F

Broken clouds.


Feels Like: 78 °F
Forecast: 66 / 78 °F
Wind: 5 mph from North

Location: Elefsis Airport

Current Time: Sep 18, 2014 at 1:06:35 PM

Latest Report: Sep 18, 2014 at 11:50 AM


Visibility: N/A

Pressure: 30.04 "Hg

Humidity: 44%

Dew point: 54 °F

Location of AthensLocation

Historic Weather in Athens — Graph

°F

Athens temperature yesterday

Maximum temperature yesterday: 82 °F (at 4:20 PM)
Minimum temperature yesterday: 66 °F (at 2:50 AM)
Average temperature yesterday: 74 °F

Past Weeks' High & Low Weather Summary

 TemperatureHumidityPressure
High90 °F (Sep 5, 3:50 PM)100% (Sep 8, 12:50 AM)30.04 "Hg (Sep 8, 12:50 AM)
Low64 °F (Sep 11, 5:50 AM)27% (Sep 11, 4:20 PM)29.65 "Hg (Sep 3, 2:50 PM)
Average77 °F59%29.86 "Hg
* Reported Sep 3 11:20 AM — Sep 18 11:50 AM, Athens, Weather by CustomWeather, © 2014

Note: Actual official high and low records may vary slightly from our data, if they occured in-between our weather recording intervals... More about our weather records

Advertising

Athens weather history for previous 24 hours

 ConditionsComfort  
Time TempWeatherWind HumidityBarometerVisibility
11:50 AM
Sep 18
77 °FBroken clouds.5 mph44%30.04 "HgN/A
11:20 AM77 °FBroken clouds.5 mph47%30.04 "HgN/A
10:50 AM75 °FBroken clouds.6 mph50%30.04 "HgN/A
10:20 AM75 °FBroken clouds.6 mph50%30.04 "HgN/A
9:50 AM73 °FScattered clouds.7 mph57%30.01 "HgN/A
9:20 AM73 °FScattered clouds.7 mph57%30.01 "HgN/A
8:50 AM72 °FPassing clouds.7 mph61%30.01 "HgN/A
8:20 AM70 °FPassing clouds.7 mph64%30.01 "HgN/A
7:20 AM66 °FPassing clouds.6 mph78%29.98 "HgN/A
6:50 AM66 °FPassing clouds.8 mph78%29.98 "HgN/A
6:20 AM66 °FPassing clouds.6 mph78%29.98 "HgN/A
5:50 AM68 °FPassing clouds.7 mph73%29.98 "HgN/A
5:20 AM68 °FPassing clouds.5 mph73%29.95 "HgN/A
4:50 AM68 °FPassing clouds.8 mph69%29.95 "HgN/A
4:20 AM68 °FPassing clouds.8 mph69%29.95 "HgN/A
3:50 AM70 °FPassing clouds.6 mph69%29.98 "HgN/A
3:20 AM70 °FPassing clouds.7 mph64%29.98 "HgN/A
2:50 AM70 °FPassing clouds.8 mph64%29.95 "HgN/A
2:20 AM70 °FPassing clouds.6 mph64%29.98 "HgN/A
1:50 AM70 °FPassing clouds.6 mph64%29.98 "HgN/A
1:20 AM72 °FPassing clouds.6 mph61%29.98 "HgN/A
12:50 AM72 °FPassing clouds.6 mph57%29.95 "HgN/A
12:20 AM72 °FPassing clouds.6 mph65%29.95 "HgN/A
11:50 PM
Sep 17
70 °FPartly cloudy.6 mph60%29.98 "HgN/A
11:20 PM72 °FPartly cloudy.5 mph57%29.98 "HgN/A
10:50 PM72 °FPartly cloudy.5 mph57%29.95 "HgN/A
10:20 PM73 °FPartly cloudy.5 mph53%29.95 "HgN/A
9:50 PM73 °FPassing clouds.No wind57%29.95 "HgN/A
9:20 PM73 °FPassing clouds.5 mph57%29.95 "HgN/A
8:50 PM73 °FPassing clouds.6 mph57%29.92 "HgN/A
8:20 PM75 °FScattered clouds.No wind54%29.92 "HgN/A
7:50 PM75 °FScattered clouds.6 mph50%29.92 "HgN/A
7:20 PM75 °FScattered clouds.5 mph50%29.89 "HgN/A
6:50 PM77 °FPassing clouds.9 mph47%29.89 "HgN/A
6:20 PM79 °FPassing clouds.10 mph45%29.89 "HgN/A
5:50 PM79 °FPassing clouds.10 mph45%29.89 "HgN/A
5:20 PM81 °FScattered clouds.9 mph42%29.86 "HgN/A
4:50 PM81 °FScattered clouds.9 mph42%29.86 "HgN/A
4:20 PM82 °FScattered clouds.12 mph37%29.89 "HgN/A
3:50 PM81 °FScattered clouds.12 mph39%29.89 "HgN/A
3:20 PM81 °FScattered clouds.12 mph42%29.89 "HgN/A
2:50 PM81 °FScattered clouds.12 mph42%29.89 "HgN/A
2:20 PM79 °FScattered clouds.12 mph48%29.89 "HgN/A
1:50 PM81 °FScattered clouds.8 mph42%29.89 "HgN/A
1:20 PM79 °FScattered clouds.12 mph51%29.89 "HgN/A
Weather by CustomWeather, © 2014

See weather overviewHow to use our weather pages